Hourly Weather Klárafalva

Today, 25 July, Sunday

Time Temperature Precipitation Wind Pressure Humidity
00:00 +21°C° 0 mm 3 mps 753 mmHg 51%
01:00 +21°C° 0 mm 3 mps 753 mmHg 52%
02:00 +21°C° 0 mm 3 mps 753 mmHg 54%
03:00 +20°C° 0 mm 3 mps 753 mmHg 56%
04:00 +20°C° 0 mm 3 mps 753 mmHg 58%
05:00 +21°C° 0 mm 4 mps 753 mmHg 54%
06:00 +23°C° 0 mm 5 mps 753 mmHg 51%
07:00 +26°C° 0 mm 6 mps 753 mmHg 47%
08:00 +28°C° 0 mm 6 mps 753 mmHg 43%
09:00 +30°C° 0 mm 7 mps 753 mmHg 38%
10:00 +33°C° 0 mm 7 mps 753 mmHg 33%
11:00 +34°C° 0 mm 7 mps 753 mmHg 32%
12:00 +35°C° 0 mm 7 mps 752 mmHg 30%
13:00 +36°C° 0 mm 6 mps 752 mmHg 29%
14:00 +36°C° 0 mm 6 mps 752 mmHg 29%
15:00 +36°C° 0 mm 6 mps 752 mmHg 29%
16:00 +37°C° 0 mm 5 mps 751 mmHg 29%
17:00 +34°C° 0 mm 5 mps 751 mmHg 35%
18:00 +32°C° 0 mm 4 mps 751 mmHg 41%
19:00 +29°C° 0 mm 4 mps 751 mmHg 47%
20:00 +27°C° 0.4 mm 4 mps 751 mmHg 57%
21:00 +25°C° 0.4 mm 4 mps 751 mmHg 67%
22:00 +22°C° 0.4 mm 4 mps 752 mmHg 77%
23:00 +22°C° 0.1 mm 5 mps 752 mmHg 74%

Tomorrow, 26 July, Monday

Time Temperature Precipitation Wind Pressure Humidity
00:00 +22°C° 0.1 mm 5 mps 752 mmHg 70%
01:00 +22°C° 0.1 mm 6 mps 752 mmHg 67%
02:00 +21°C° 0.1 mm 5 mps 752 mmHg 68%
03:00 +21°C° 0.1 mm 5 mps 752 mmHg 69%
04:00 +20°C° 0.1 mm 4 mps 752 mmHg 70%
05:00 +22°C° 0 mm 5 mps 752 mmHg 62%
06:00 +25°C° 0 mm 5 mps 752 mmHg 55%
07:00 +26°C° 0 mm 6 mps 752 mmHg 48%
08:00 +29°C° 0 mm 6 mps 753 mmHg 43%
09:00 +32°C° 0 mm 6 mps 753 mmHg 38%
10:00 +34°C° 0 mm 6 mps 753 mmHg 33%
11:00 +35°C° 0 mm 6 mps 753 mmHg 32%
12:00 +36°C° 0 mm 6 mps 753 mmHg 30%
13:00 +39°C° 0 mm 6 mps 753 mmHg 28%
14:00 +39°C° 0 mm 6 mps 752 mmHg 27%
15:00 +39°C° 0 mm 6 mps 752 mmHg 26%
16:00 +40°C° 0 mm 5 mps 752 mmHg 25%
17:00 +37°C° 0 mm 5 mps 752 mmHg 31%
18:00 +34°C° 0 mm 5 mps 752 mmHg 36%
19:00 +32°C° 0 mm 5 mps 752 mmHg 42%
20:00 +29°C° 0 mm 5 mps 753 mmHg 46%
21:00 +28°C° 0 mm 5 mps 753 mmHg 49%
22:00 +26°C° 0 mm 5 mps 754 mmHg 53%
23:00 +26°C° 0 mm 4 mps 754 mmHg 57%

Day after tomorrow, 27 July, Tuesday

Time Temperature Precipitation Wind Pressure Humidity
00:00 +25°C° 0 mm 4 mps 754 mmHg 60%
01:00 +25°C° 0 mm 3 mps 754 mmHg 64%
02:00 +25°C° 0 mm 3 mps 754 mmHg 66%
03:00 +24°C° 0 mm 3 mps 754 mmHg 69%
04:00 +24°C° 0 mm 2 mps 754 mmHg 71%
05:00 +25°C° 0 mm 3 mps 754 mmHg 65%
06:00 +27°C° 0 mm 3 mps 754 mmHg 59%
07:00 +28°C° 0 mm 3 mps 754 mmHg 53%
08:00 +31°C° 0 mm 3 mps 754 mmHg 46%
09:00 +34°C° 0 mm 3 mps 754 mmHg 39%
10:00 +36°C° 0 mm 3 mps 754 mmHg 32%
11:00 +37°C° 0 mm 3 mps 754 mmHg 30%
12:00 +38°C° 0 mm 4 mps 754 mmHg 27%
13:00 +40°C° 0 mm 4 mps 754 mmHg 24%
14:00 +40°C° 0 mm 5 mps 753 mmHg 24%
15:00 +40°C° 0 mm 5 mps 753 mmHg 24%
16:00 +40°C° 0 mm 5 mps 753 mmHg 24%
17:00 +37°C° 0 mm 4 mps 753 mmHg 28%
18:00 +35°C° 0 mm 3 mps 753 mmHg 31%
19:00 +32°C° 0 mm 2 mps 753 mmHg 35%
20:00 +31°C° 0 mm 2 mps 753 mmHg 37%
21:00 +30°C° 0 mm 2 mps 753 mmHg 39%
22:00 +29°C° 0 mm 3 mps 754 mmHg 42%
23:00 +28°C° 0 mm 3 mps 754 mmHg 44%

28 July, Wednesday

Time Temperature Precipitation Wind Pressure Humidity
00:00 +28°C° 0 mm 3 mps 754 mmHg 46%
01:00 +27°C° 0 mm 3 mps 754 mmHg 48%
02:00 +26°C° 0 mm 2 mps 754 mmHg 49%
03:00 +26°C° 0 mm 2 mps 754 mmHg 50%
04:00 +25°C° 0 mm 2 mps 754 mmHg 51%
05:00 +27°C° 0 mm 2 mps 754 mmHg 47%
06:00 +29°C° 0 mm 1 mps 754 mmHg 43%
07:00 +31°C° 0 mm 1 mps 754 mmHg 39%
08:00 +34°C° 0 mm 2 mps 754 mmHg 35%
09:00 +36°C° 0 mm 2 mps 754 mmHg 31%
10:00 +38°C° 0 mm 3 mps 753 mmHg 27%
11:00 +40°C° 0 mm 4 mps 753 mmHg 25%
12:00 +41°C° 0 mm 4 mps 753 mmHg 22%
13:00 +42°C° 0 mm 5 mps 752 mmHg 20%
14:00 +43°C° 0 mm 5 mps 752 mmHg 19%
15:00 +43°C° 0 mm 4 mps 751 mmHg 18%
16:00 +43°C° 0 mm 4 mps 751 mmHg 17%
17:00 +41°C° 0 mm 4 mps 751 mmHg 20%
18:00 +38°C° 0 mm 3 mps 751 mmHg 23%
19:00 +36°C° 0 mm 3 mps 750 mmHg 25%
20:00 +34°C° 0 mm 3 mps 751 mmHg 28%
21:00 +33°C° 0 mm 3 mps 751 mmHg 30%
22:00 +30°C° 0 mm 4 mps 751 mmHg 33%
23:00 +28°C° 0 mm 4 mps 752 mmHg 45%

29 July, Thursday

Time Temperature Precipitation Wind Pressure Humidity
00:00 +26°C° 0 mm 4 mps 752 mmHg 57%
01:00 +23°C° 0 mm 4 mps 752 mmHg 69%
02:00 +22°C° 0 mm 4 mps 753 mmHg 71%
03:00 +22°C° 0 mm 4 mps 753 mmHg 72%
04:00 +21°C° 0 mm 4 mps 753 mmHg 73%
05:00 +23°C° 0 mm 4 mps 753 mmHg 67%
06:00 +25°C° 0 mm 4 mps 754 mmHg 60%
07:00 +27°C° 0 mm 4 mps 754 mmHg 54%
08:00 +29°C° 0 mm 4 mps 754 mmHg 44%
09:00 +33°C° 0 mm 4 mps 754 mmHg 34%
10:00 +35°C° 0 mm 3 mps 754 mmHg 24%
11:00 +37°C° 0 mm 4 mps 754 mmHg 22%
12:00 +38°C° 0 mm 4 mps 754 mmHg 20%
13:00 +40°C° 0 mm 4 mps 753 mmHg 18%
14:00 +40°C° 0 mm 4 mps 753 mmHg 18%
15:00 +39°C° 0 mm 3 mps 753 mmHg 19%
16:00 +39°C° 0 mm 3 mps 752 mmHg 19%
17:00 +37°C° 0 mm 3 mps 752 mmHg 23%
18:00 +35°C° 0 mm 3 mps 752 mmHg 26%
19:00 +32°C° 0 mm 2 mps 752 mmHg 29%
20:00 +31°C° 0 mm 2 mps 752 mmHg 32%
21:00 +29°C° 0 mm 2 mps 752 mmHg 34%
22:00 +28°C° 0 mm 2 mps 752 mmHg 37%
23:00 +27°C° 0 mm 2 mps 752 mmHg 41%

30 July, Friday

Time Temperature Precipitation Wind Pressure Humidity
00:00 +26°C° 0 mm 2 mps 752 mmHg 44%
01:00 +26°C° 0 mm 2 mps 752 mmHg 48%
02:00 +25°C° 0 mm 2 mps 752 mmHg 50%
03:00 +25°C° 0 mm 2 mps 752 mmHg 52%
04:00 +25°C° 0 mm 2 mps 751 mmHg 54%
05:00 +27°C° 0 mm 2 mps 752 mmHg 48%
06:00 +28°C° 0 mm 2 mps 752 mmHg 42%
07:00 +30°C° 0 mm 3 mps 752 mmHg 36%
08:00 +34°C° 0 mm 3 mps 751 mmHg 31%
09:00 +36°C° 0 mm 3 mps 751 mmHg 27%
10:00 +38°C° 0 mm 3 mps 751 mmHg 22%
11:00 +39°C° 0 mm 3 mps 750 mmHg 21%
12:00 +42°C° 0 mm 3 mps 750 mmHg 19%
13:00 +43°C° 0 mm 3 mps 749 mmHg 18%
14:00 +43°C° 0 mm 3 mps 749 mmHg 18%
15:00 +43°C° 0 mm 3 mps 748 mmHg 17%
16:00 +43°C° 0 mm 3 mps 748 mmHg 17%
17:00 +40°C° 0 mm 3 mps 748 mmHg 20%
18:00 +38°C° 0 mm 2 mps 748 mmHg 23%
19:00 +36°C° 0 mm 2 mps 747 mmHg 26%
20:00 +34°C° 0 mm 2 mps 747 mmHg 28%
21:00 +33°C° 0 mm 3 mps 747 mmHg 30%
22:00 +32°C° 0 mm 4 mps 748 mmHg 32%
23:00 +29°C° 0 mm 3 mps 748 mmHg 42%
Show more